Weather Roundup
Issued by NWS

Home | Current Version | Previous Version | Text Only | Print | Product List | Glossary On
Versions: 1 2 3 4 5 6 7 8 9 10 11 12 13 14 15 16 17 18 19 20 21 22 23 24 25 26 27 28 29 30 31 32 33 34 35 36 37 38 39 40 41 42 43 44 45 46 47 48 49 50
724
NZUS93 KARX 261810
HRRWXR

CURRENT HOURLY OBSERVATIONS ACROSS
MUCH OF THE UPPER MISSISSIPPI VALLEY
NATIONAL WEATHER SERVICE LA CROSSE WI
100 PM CDT THU APR 26 2018


...SOUTHEAST MINNESOTA...


CITY           SKY/WX    TMP DP  RH WIND       PRES   REMARKS
ROCHESTER      FAIR      61  40  45 SW21      29.88F
ROCHESTER/MAYO FAIR      61  34  36 W9G30     29.87S
WINONA         FAIR      68  34  28 SW13      29.83F
AUSTIN         FAIR      61  39  44 W18G24    29.88F
ALBERT LEA     FAIR      61  37  41 NW12G18   29.88S
DODGE CENTER   FAIR      61  39  44 W18G24    29.87S
PRESTON        FAIR      62  32  32 W14G21    29.89S
OWATONNA       FAIR      61  39  44 W13       29.88R
FARIBAULT      NOT AVBL
$$

...ELSEWHERE IN MINNESOTA...


CITY           SKY/WX    TMP DP  RH WIND       PRES   REMARKS
MINNEAPOLIS    FAIR      62  36  37 W16G24    29.86F
INTNL FALLS    PTSUNNY   52  30  43 NW12      29.92S
DULUTH         FAIR      53  36  52 N16G25    29.84R
RED WING       FAIR      66  30  26 E15G24    29.83S
REDWOOD FALLS  SUNNY     59  32  36 N16G30    29.95R
MANKATO        FAIR      57  38  48 NW14      29.90S
WORTHINGTON    SUNNY     56  40  55 N23G35    29.97R
FAIRMONT       PTSUNNY   54  44  69 NW15G25   29.92S
$$

...SOUTHWEST WISCONSIN...


CITY           SKY/WX    TMP DP  RH WIND       PRES   REMARKS
LA CROSSE      FAIR      69  31  24 W12       29.85F
PRAIRIE DU CHI FAIR      66  27  23 W8G18     29.89F
BOSCOBEL       FAIR      67  33  28 NW9G18    29.89F
LONE ROCK      FAIR      63  32  31 W9        29.90F
PLATTEVILLE    FAIR      63  31  30 SW9       29.92F
FORT MC COY    FAIR      65  30  27 SW8G16    29.87F
MAUSTON-NEW LI FAIR      64  30  28 W3        29.86F
VIROQUA        FAIR      62  33  33 W9G21     29.89F
WIS DELLS      FAIR      62  28  28 W6G16     29.89S
$$

...ELSEWHERE IN WISCONSIN...


CITY           SKY/WX    TMP DP  RH WIND       PRES   REMARKS
MILWAUKEE      PTSUNNY   62  30  29 W9        29.91F
MADISON        PTSUNNY   61  32  33 SW9       29.89F
GREEN BAY      FAIR      60  37  42 S12       29.86F
EAU CLAIRE     FAIR      65  32  29 SW13G24   29.81F
BLACK RVR FLS  FAIR      67  26  21 W10       29.85F
MEDFORD        FAIR      59  33  37 W10G16    29.82F
WAUSAU         FAIR      61  31  32 W15G22    29.81F
WIS RAPIDS     FAIR      65  28  24 SW14      29.85F
MARSHFIELD     FAIR      62  33  33 W13G18    29.83F
RICE LAKE      FAIR      60  33  36 W7        29.84S
$$

...NORTHEAST IOWA...


CITY           SKY/WX    TMP DP  RH WIND       PRES   REMARKS
WATERLOO       FAIR      67  31  26 W15       29.89F
DUBUQUE        FAIR      63  31  30 NW9       29.91F
DECORAH        FAIR      64  32  29 W8G15     29.88F
MASON CITY     CLOUDY    63  36  36 W15       29.90F
CHARLES CITY   FAIR      64  32  29 W20       29.90F
OELWEIN        FAIR      64  30  27 W10G21    29.90F
$$

...ELSEWHERE IN IOWA...


CITY           SKY/WX    TMP DP  RH WIND       PRES   REMARKS
DES MOINES     CLOUDY    68  30  24 W9        29.93F
IOWA CITY      FAIR      67  30  25 W10       29.93F
FORT DODGE     SUNNY     67  35  30 W16G22    29.91F
MARSHALLTOWN   SUNNY     67  33  28 W17       29.91F
CEDAR RAPIDS   FAIR      68  29  23 W7        29.91F
$$

...NORTHERN ILLINOIS...


CITY           SKY/WX    TMP DP  RH WIND       PRES   REMARKS
CHICAGO-OHARE  PTSUNNY   62  28  27 VRB3      29.93F
CHICAGO-MIDWAY PTSUNNY   61  27  27 N5        29.94F
MOLINE         FAIR      67  33  28 VRB5      29.92F
ROCKFORD       CLOUDY    62  31  31 W8        29.93F
PEORIA         FAIR      65  37  35 VRB6      29.94F
$$

NOTE: "FAIR" INDICATES FEW OR NO CLOUDS BELOW 12,000 FEET WITH NO
SIGNIFICANT WEATHER AND/OR OBSTRUCTIONS TO VISIBILITY. WIND
SPEEDS ARE IN MILES-PER-HOUR.




USA.gov is the U.S. government's official web portal to all federal, state and local government web resources and services.